FW0837 Weather Reports


Display with metric or nautical units.
time (UTC)temp
F
wind
direction
speed
MPH
gust
MPH
rain 1hr
in
rain 24hr
in
rain mn
in
humidity
%
barometer
mb
20260831225540 73 53 1.0 5.0 0.00 0.00 0.00 64 1018.6
20260831225043 74 93 0.0 4.0 0.00 0.00 0.00 63 1018.6
20260831224540 75 101 0.0 3.0 0.00 0.00 0.00 63 1018.6
20260831224040 75 98 1.0 3.0 0.00 0.00 0.00 61 1018.6
20260831223542 76 98 0.0 3.0 0.00 0.00 0.00 60 1018.6
20260831223040 76 215 0.0 2.0 0.00 0.00 0.00 60 1018.6
20260831222540 77 216 0.0 4.0 0.00 0.00 0.00 59 1018.6
20260831222039 77 216 1.0 5.0 0.00 0.00 0.00 59 1018.6
20260831221540 77 258 1.0 4.0 0.00 0.00 0.00 58 1018.5
20260831221039 78 278 0.0 5.0 0.00 0.00 0.00 57 1018.5
20260831220539 78 233 2.0 5.0 0.00 0.00 0.00 54 1018.4
20260831220039 79 233 0.0 6.0 0.00 0.00 0.00 55 1018.4
20260831215538 79 233 1.0 6.0 0.00 0.00 0.00 54 1018.4
20260831215039 80 210 1.0 5.0 0.00 0.00 0.00 54 1018.4
20260831214538 79 189 2.0 5.0 0.00 0.00 0.00 52 1018.4
20260831214038 80 259 1.0 6.0 0.00 0.00 0.00 52 1018.5
20260831213537 81 208 1.0 3.0 0.00 0.00 0.00 53 1018.5
20260831213037 79 208 1.0 4.0 0.00 0.00 0.00 54 1018.4
20260831212537 79 206 1.0 5.0 0.00 0.00 0.00 57 1018.5
20260831212040 78 195 2.0 5.0 0.00 0.00 0.00 54 1018.5
20260831211537 78 212 1.0 4.0 0.00 0.00 0.00 54 1018.6
20260831211037 77 217 1.0 5.0 0.00 0.00 0.00 57 1018.6
20260831210538 76 220 2.0 5.0 0.00 0.00 0.00 55 1018.7
20260831210040 77 199 1.0 6.0 0.00 0.00 0.00 55 1018.7
20260831205539 78 269 2.0 6.0 0.00 0.00 0.00 53 1018.8
20260831205036 79 264 1.0 7.0 0.00 0.00 0.00 52 1018.7
20260831204538 78 217 1.0 7.0 0.00 0.00 0.00 51 1018.8
20260831204036 78 217 2.0 5.0 0.00 0.00 0.00 53 1018.8
20260831203535 78 212 1.0 4.0 0.00 0.00 0.00 52 1018.7
20260831203035 79 212 0.0 7.0 0.00 0.00 0.00 53 1018.7
20260831202535 79 256 1.0 4.0 0.00 0.00 0.00 50 1018.8
20260831202039 79 272 1.0 7.0 0.00 0.00 0.00 49 1018.6
20260831201535 81 280 3.0 7.0 0.00 0.00 0.00 47 1018.7
20260831201039 82 276 3.0 7.0 0.00 0.00 0.00 45 1018.8
20260831200535 82 235 2.0 5.0 0.00 0.00 0.00 45 1018.7
20260831200037 84 220 1.0 3.0 0.00 0.00 0.00 43 1018.7
20260831195534 83 220 2.0 3.0 0.00 0.00 0.00 43 1018.8
20260831195033 81 220 1.0 4.0 0.00 0.00 0.00 45 1018.8
20260831194533 80 217 1.0 8.0 0.00 0.00 0.00 45 1018.8
20260831194033 80 284 4.0 10.0 0.00 0.00 0.00 46 1018.8
20260831193531 81 231 5.0 10.0 0.00 0.00 0.00 46 1018.8
20260831193031 81 259 2.0 8.0 0.00 0.00 0.00 44 1018.8
20260831192533 81 145 1.0 6.0 0.00 0.00 0.00 46 1018.8
20260831192029 80 183 1.0 8.0 0.00 0.00 0.00 47 1018.9
20260831191530 80 185 3.0 8.0 0.00 0.00 0.00 46 1019.0
20260831191029 79 167 1.0 7.0 0.00 0.00 0.00 47 1019.1
20260831190529 81 224 4.0 7.0 0.00 0.00 0.00 45 1019.2
20260831190029 82 172 1.0 7.0 0.00 0.00 0.00 44 1019.1
20260831185528 81 283 2.0 5.0 0.00 0.00 0.00 46 1019.2
20260831185028 79 290 2.0 10.0 0.00 0.00 0.00 48 1019.3
20260831184527 78 232 5.0 10.0 0.00 0.00 0.00 47 1019.4
20260831184027 79 243 1.0 8.0 0.00 0.00 0.00 46 1019.4
20260831183527 82 228 3.0 9.0 0.00 0.00 0.00 46 1019.4
20260831183027 81 288 3.0 9.0 0.00 0.00 0.00 46 1019.3
20260831182526 79 241 2.0 8.0 0.00 0.00 0.00 47 1019.5
20260831182026 80 202 3.0 9.0 0.00 0.00 0.00 48 1019.5
20260831181526 82 337 3.0 10.0 0.00 0.00 0.00 45 1019.5
20260831181024 82 287 2.0 10.0 0.00 0.00 0.00 45 1019.5
20260831180523 79 131 1.0 7.0 0.00 0.00 0.00 45 1019.5
20260831180025 79 306 3.0 7.0 0.00 0.00 0.00 47 1019.6
20260831175523 76 222 3.0 7.0 0.00 0.00 0.00 49 1019.6
20260831175022 79 207 2.0 5.0 0.00 0.00 0.00 46 1019.6
20260831174522 80 299 2.0 9.0 0.00 0.00 0.00 46 1019.6
20260831174021 79 272 4.0 8.0 0.00 0.00 0.00 50 1019.6
20260831173521 77 152 2.0 4.0 0.00 0.00 0.00 55 1019.8
20260831173025 76 226 2.0 4.0 0.00 0.00 0.00 54 1019.8
20260831172519 78 228 0.0 5.0 0.00 0.00 0.00 52 1020.0
20260831172019 78 228 1.0 5.0 0.00 0.00 0.00 51 1020.0
20260831171520 78 229 1.0 5.0 0.00 0.00 0.00 52 1020.0
20260831171019 76 228 2.0 8.0 0.00 0.00 0.00 51 1020.1
20260831170519 77 212 3.0 8.0 0.00 0.00 0.00 50 1020.2
20260831170019 76 345 3.0 7.0 0.00 0.00 0.00 54 1020.2
20260831165519 76 223 3.0 7.0 0.00 0.00 0.00 53 1020.3
20260831165017 76 275 3.0 7.0 0.00 0.00 0.00 54 1020.4
20260831164517 77 226 2.0 7.0 0.00 0.00 0.00 49 1020.4
20260831164017 79 121 1.0 5.0 0.00 0.00 0.00 49 1020.4
20260831163516 78 223 2.0 5.0 0.00 0.00 0.00 49 1020.4
20260831163022 78 107 2.0 4.0 0.00 0.00 0.00 50 1020.3
20260831162518 79 81 0.0 4.0 0.00 0.00 0.00 50 1020.4
20260831162014 77 69 1.0 8.0 0.00 0.00 0.00 51 1020.5
20260831161526 77 70 4.0 8.0 0.00 0.00 0.00 48 1020.4
20260831161012 77 324 2.0 4.0 0.00 0.00 0.00 50 1020.5
20260831160510 77 83 2.0 4.0 0.00 0.00 0.00 49 1020.6
20260831160015 75 236 1.0 6.0 0.00 0.00 0.00 51 1020.6
20260831155509 73 236 1.0 6.0 0.00 0.00 0.00 54 1020.7
20260831155009 74 204 2.0 5.0 0.00 0.00 0.00 53 1020.6
20260831154508 74 219 1.0 4.0 0.00 0.00 0.00 52 1020.5
20260831154013 73 182 1.0 8.0 0.00 0.00 0.00 53 1020.6
20260831153508 75 294 4.0 8.0 0.00 0.00 0.00 56 1020.6
20260831153006 77 244 2.0 5.0 0.00 0.00 0.00 52 1020.7
20260831152506 76 243 1.0 4.0 0.00 0.00 0.00 54 1020.7
20260831152004 75 335 1.0 5.0 0.00 0.00 0.00 55 1020.8
20260831151503 74 289 1.0 5.0 0.00 0.00 0.00 53 1020.9
20260831151002 73 106 0.0 4.0 0.00 0.00 0.00 56 1020.9
20260831150500 72 210 0.0 6.0 0.00 0.00 0.00 56 1021.0
20260831150100 73 210 4.0 6.0 0.00 0.00 0.00 54 1021.1
20260831145558 74 270 1.0 4.0 0.00 0.00 0.00 55 1021.0
20260831145057 74 278 2.0 5.0 0.00 0.00 0.00 55 1021.2
20260831144603 74 285 1.0 6.0 0.00 0.00 0.00 55 1021.1
20260831144055 74 319 1.0 5.0 0.00 0.00 0.00 54 1021.2
20260831143553 74 319 3.0 5.0 0.00 0.00 0.00 57 1021.1
20260831143055 74 25 1.0 4.0 0.00 0.00 0.00 57 1021.1
20260831142551 74 72 0.0 4.0 0.00 0.00 0.00 56 1021.2
20260831142048 74 72 1.0 4.0 0.00 0.00 0.00 55 1021.3
20260831141548 74 91 1.0 4.0 0.00 0.00 0.00 58 1021.2
20260831141046 73 91 1.0 5.0 0.00 0.00 0.00 58 1021.2
20260831140545 73 218 2.0 5.0 0.00 0.00 0.00 57 1021.2
20260831140044 73 58 1.0 4.0 0.00 0.00 0.00 58 1021.2
20260831135543 72 58 0.0 4.0 0.00 0.00 0.00 59 1021.2
20260831135040 71 58 0.0 3.0 0.00 0.00 0.00 62 1021.1
20260831134540 70 58 0.0 5.0 0.00 0.00 0.00 61 1021.2
20260831134038 70 59 2.0 5.0 0.00 0.00 0.00 63 1021.2
20260831133539 70 55 2.0 4.0 0.00 0.00 0.00 62 1021.2
20260831133037 70 55 1.0 5.0 0.00 0.00 0.00 63 1021.1
20260831132534 69 342 0.0 5.0 0.00 0.00 0.00 64 1021.1
20260831132033 69 75 2.0 5.0 0.00 0.00 0.00 64 1021.1
20260831131543 69 66 1.0 5.0 0.00 0.00 0.00 66 1021.0
20260831131031 68 66 1.0 6.0 0.00 0.00 0.00 65 1021.0
20260831130528 67 60 4.0 6.0 0.00 0.00 0.00 65 1021.0
20260831130027 67 66 2.0 5.0 0.00 0.00 0.00 68 1021.0
20260831125526 66 41 1.0 3.0 0.00 0.00 0.00 71 1021.0
20260831125024 66 41 1.0 4.0 0.00 0.00 0.00 70 1021.0
20260831124526 66 39 2.0 4.0 0.00 0.00 0.00 73 1021.0
20260831124022 65 301 1.0 4.0 0.00 0.00 0.00 76 1020.9
20260831123521 65 299 0.0 4.0 0.00 0.00 0.00 77 1021.0
20260831123021 66 320 1.0 4.0 0.00 0.00 0.00 75 1020.9
20260831122520 67 27 0.0 2.0 0.00 0.00 0.00 75 1020.7
20260831122019 67 27 0.0 4.0 0.00 0.00 0.00 79 1020.6
20260831121518 66 27 1.0 4.0 0.00 0.00 0.00 80 1020.5
20260831121017 66 271 1.0 4.0 0.00 0.00 0.00 83 1020.6
20260831120514 66 271 1.0 3.0 0.00 0.00 0.00 85 1020.5
20260831120017 65 270 0.0 3.0 0.00 0.00 0.00 88 1020.5
20260831115513 64 270 0.0 3.0 0.00 0.00 0.00 90 1020.5
20260831115013 63 270 0.0 2.0 0.00 0.00 0.00 91 1020.4
20260831114511 62 270 0.0 2.0 0.00 0.00 0.00 92 1020.4
20260831114011 61 270 0.0 2.0 0.00 0.00 0.00 92 1020.4
20260831113506 60 270 0.0 2.0 0.00 0.00 0.00 92 1020.3
20260831113008 59 270 0.0 0.0 0.00 0.00 0.00 92 1020.3
20260831112506 58 270 0.0 0.0 0.00 0.00 0.00 92 1020.3
20260831112003 58 270 0.0 0.0 0.00 0.00 0.00 91 1020.3
20260831111500 57 270 0.0 1.0 0.00 0.00 0.00 91 1020.3
20260831111100 57 270 0.0 1.0 0.00 0.00 0.00 92 1020.3
20260831110559 57 270 0.0 1.0 0.00 0.00 0.00 91 1020.4
20260831110106 56 270 0.0 0.0 0.00 0.00 0.00 91 1020.4
20260831105557 56 270 0.0 0.0 0.00 0.00 0.00 91 1020.4
20260831105057 56 270 0.0 0.0 0.00 0.00 0.00 91 1020.4
20260831104555 56 270 0.0 1.0 0.00 0.00 0.00 91 1020.4
20260831104054 56 270 0.0 1.0 0.00 0.00 0.00 91 1020.3
20260831103553 56 270 0.0 1.0 0.00 0.00 0.00 91 1020.3
20260831103052 56 270 0.0 0.0 0.00 0.00 0.00 91 1020.3
20260831102551 56 270 0.0 1.0 0.00 0.00 0.00 91 1020.0
20260831102054 57 270 0.0 1.0 0.00 0.00 0.00 91 1019.9
20260831101550 57 270 0.0 1.0 0.00 0.00 0.00 91 1019.9
20260831101049 57 270 0.0 2.0 0.00 0.00 0.00 91 1019.8
20260831100547 57 270 0.0 2.0 0.00 0.00 0.00 91 1019.7
20260831100045 58 270 0.0 2.0 0.00 0.00 0.00 90 1019.7
20260831095544 58 271 0.0 2.0 0.00 0.00 0.00 91 1019.6
20260831095043 58 270 0.0 1.0 0.00 0.00 0.00 91 1019.5
20260831094542 58 270 0.0 2.0 0.00 0.00 0.00 90 1019.4
20260831094041 58 270 0.0 2.0 0.00 0.00 0.00 90 1019.2
20260831093541 58 270 0.0 3.0 0.00 0.00 0.00 91 1019.3
20260831093040 58 270 0.0 3.0 0.00 0.00 0.00 91 1019.2
20260831092538 58 269 0.0 2.0 0.00 0.00 0.00 91 1019.1
20260831092038 58 269 0.0 3.0 0.00 0.00 0.00 90 1019.1
20260831091537 59 269 0.0 3.0 0.00 0.00 0.00 90 1019.1
20260831091037 59 268 0.0 2.0 0.00 0.00 0.00 91 1018.9
20260831090537 59 268 0.0 2.0 0.00 0.00 0.00 91 1018.9
20260831090037 59 268 0.0 2.0 0.00 0.00 0.00 91 1018.9
20260831085537 59 268 0.0 2.0 0.00 0.00 0.00 90 1018.8
20260831085038 59 268 0.0 3.0 0.00 0.00 0.00 90 1018.8
20260831084534 59 268 1.0 2.0 0.00 0.00 0.00 90 1018.9
20260831084034 59 268 0.0 2.0 0.00 0.00 0.00 90 1018.8
20260831083533 59 268 0.0 3.0 0.00 0.00 0.00 90 1018.8
20260831083039 59 268 0.0 3.0 0.00 0.00 0.00 90 1018.8
20260831082535 59 268 0.0 0.0 0.00 0.00 0.00 90 1018.6
20260831082033 59 268 0.0 0.0 0.00 0.00 0.00 90 1018.7
20260831081536 60 268 0.0 0.0 0.00 0.00 0.00 90 1018.8
20260831081031 60 268 0.0 0.0 0.00 0.00 0.00 90 1018.6
20260831080530 60 268 0.0 0.0 0.00 0.00 0.00 90 1018.7
20260831080029 60 268 0.0 1.0 0.00 0.00 0.00 90 1018.5
20260831075529 60 268 0.0 1.0 0.00 0.00 0.00 90 1018.5
20260831075029 60 268 0.0 1.0 0.00 0.00 0.00 90 1018.4
20260831074528 60 268 0.0 0.0 0.00 0.00 0.00 89 1018.5
20260831074027 60 268 0.0 0.0 0.00 0.00 0.00 89 1018.4
20260831073527 60 268 0.0 0.0 0.00 0.00 0.00 89 1018.4
20260831073027 61 268 0.0 1.0 0.00 0.00 0.00 89 1018.5
20260831072526 61 268 0.0 1.0 0.00 0.00 0.00 89 1018.4
20260831072024 61 268 0.0 1.0 0.00 0.00 0.00 89 1018.2
20260831071524 61 268 0.0 1.0 0.00 0.00 0.00 88 1018.2
20260831071023 61 268 0.0 0.0 0.00 0.00 0.00 88 1018.1
20260831070523 61 268 0.0 0.0 0.00 0.00 0.00 88 1018.2
20260831070026 62 268 0.0 0.0 0.00 0.00 0.00 88 1018.1
20260831065522 62 268 0.0 0.0 0.00 0.00 0.00 87 1018.2
20260831065019 62 268 0.0 1.0 0.00 0.00 0.00 87 1018.1
20260831064518 63 268 0.0 0.0 0.00 0.00 0.00 87 1018.1
20260831064018 63 268 0.0 0.0 0.00 0.00 0.00 87 1018.1
20260831063516 63 268 0.0 0.0 0.00 0.00 0.00 87 1018.1
20260831063015 64 268 0.0 1.0 0.00 0.00 0.00 87 1018.1
20260831062514 64 268 0.0 2.0 0.00 0.00 0.00 87 1018.0
20260831062014 64 268 0.0 3.0 0.00 0.00 0.00 87 1017.9
20260831061513 64 268 1.0 3.0 0.00 0.00 0.00 86 1017.8
20260831061011 65 268 0.0 1.0 0.00 0.00 0.00 86 1017.9
20260831060510 65 268 0.0 2.0 0.00 0.00 0.00 86 1017.8
20260831060009 65 268 0.0 4.0 0.00 0.00 0.00 86 1017.7
20260831055509 65 268 1.0 7.0 0.00 0.00 0.00 86 1017.7
20260831055009 65 268 2.0 7.0 0.00 0.00 0.00 86 1017.7
20260831054507 65 264 1.0 3.0 0.00 0.00 0.00 86 1017.8
20260831054007 66 264 1.0 4.0 0.00 0.00 0.00 86 1017.7
20260831053506 66 264 1.0 4.0 0.00 0.00 0.00 86 1017.5
20260831053005 66 263 0.0 2.0 0.00 0.00 0.00 85 1017.6
20260831052504 66 263 0.0 3.0 0.00 0.00 0.00 85 1017.7
20260831052004 66 263 1.0 3.0 0.00 0.00 0.00 85 1017.7
20260831051502 66 264 0.0 6.0 0.00 0.00 0.00 85 1017.5
20260831051002 66 263 2.0 6.0 0.00 0.00 0.00 85 1017.5
20260831050502 67 282 1.0 5.0 0.00 0.00 0.00 85 1017.5
20260831050001 67 282 2.0 8.0 0.00 0.00 0.00 85 1017.5
20260831045501 67 297 1.0 8.0 0.00 0.00 0.00 84 1017.5
20260831045003 67 280 1.0 6.0 0.00 0.00 0.00 85 1017.4
20260831044606 67 282 1.0 6.0 0.00 0.00 0.00 84 1017.3
20260831044059 67 295 1.0 6.0 0.00 0.00 0.00 84 1017.3
20260831043601 67 281 0.0 8.0 0.00 0.00 0.00 85 1017.2
20260831043057 67 333 1.0 8.0 0.00 0.00 0.00 85 1017.2
20260831042556 67 288 1.0 5.0 0.00 0.00 0.00 84 1017.2
20260831042059 67 266 2.0 5.0 0.00 0.00 0.00 85 1017.1
20260831041644 67 254 1.0 4.0 0.00 0.00 0.00 84 1017.0
20260831041055 68 255 1.0 4.0 0.00 0.00 0.00 84 1017.0
20260831040553 68 226 0.0 2.0 0.00 0.00 0.00 83 1017.0
20260831040052 68 225 0.0 1.0 0.00 0.00 0.00 83 1017.0
20260831035551 68 225 0.0 2.0 0.00 0.00 0.00 82 1017.0
20260831035050 69 225 0.0 3.0 0.00 0.00 0.00 82 1017.0
20260831034550 69 226 0.0 3.0 0.00 0.00 0.00 82 1016.9
20260831034054 69 225 1.0 3.0 0.00 0.00 0.00 81 1017.0
20260831033550 69 225 1.0 3.0 0.00 0.00 0.00 81 1017.1
20260831033049 70 223 0.0 3.0 0.00 0.00 0.00 81 1017.1
20260831032549 70 224 1.0 3.0 0.00 0.00 0.00 81 1017.1
20260831032048 70 223 1.0 4.0 0.00 0.00 0.00 80 1017.2
20260831031548 70 268 0.0 5.0 0.00 0.00 0.00 80 1017.2
20260831031049 70 268 1.0 6.0 0.00 0.00 0.00 79 1017.3
20260831030552 70 338 1.0 6.0 0.00 0.00 0.00 79 1017.4
20260831030053 71 301 1.0 4.0 0.00 0.00 0.00 79 1017.3
20260831025548 71 282 1.0 6.0 0.00 0.00 0.00 79 1017.2
20260831025049 71 343 2.0 11.0 0.00 0.00 0.00 80 1017.2
20260831024600 71 203 4.0 11.0 0.00 0.00 0.00 80 1017.2
20260831024044 71 309 1.0 6.0 0.00 0.00 0.00 80 1017.1
20260831023544 71 197 2.0 6.0 0.00 0.00 0.00 81 1017.1
20260831023044 71 269 1.0 3.0 0.00 0.00 0.00 81 1017.1
20260831022544 71 269 0.0 3.0 0.00 0.00 0.00 81 1017.0
20260831022043 71 270 0.0 4.0 0.00 0.00 0.00 81 1016.9
20260831021550 71 270 0.0 4.0 0.00 0.00 0.00 81 1017.0
20260831021044 71 225 2.0 5.0 0.00 0.00 0.00 80 1017.0
20260831020544 71 256 1.0 6.0 0.00 0.00 0.00 80 1017.0
20260831020042 71 237 2.0 5.0 0.00 0.00 0.00 80 1017.0
20260831015546 71 231 2.0 4.0 0.00 0.00 0.00 80 1016.9
20260831015041 71 230 1.0 4.0 0.00 0.00 0.00 80 1016.8
20260831014540 71 229 1.0 4.0 0.00 0.00 0.00 80 1016.9
20260831014040 71 237 1.0 3.0 0.00 0.00 0.00 80 1016.9
20260831013539 71 236 1.0 3.0 0.00 0.00 0.00 80 1016.9
20260831013040 71 233 1.0 3.0 0.00 0.00 0.00 80 1016.7
20260831012539 71 232 1.0 4.0 0.00 0.00 0.00 80 1016.6
20260831012042 71 232 0.0 4.0 0.00 0.00 0.00 80 1016.5
20260831011550 71 220 0.0 4.0 0.00 0.00 0.00 79 1016.6
20260831011039 71 220 1.0 6.0 0.00 0.00 0.00 79 1016.7
20260831010538 71 216 1.0 4.0 0.00 0.00 0.00 79 1016.5
20260831010049 71 216 1.0 3.0 0.00 0.00 0.00 78 1016.4
20260831005538 72 217 1.0 5.0 0.00 0.00 0.00 77 1016.5
20260831005040 72 216 1.0 5.0 0.00 0.00 0.00 76 1016.5
20260831004538 73 230 1.0 3.0 0.00 0.00 0.00 74 1016.4
20260831004038 73 230 0.0 5.0 0.00 0.00 0.00 74 1016.3
20260831003538 73 230 2.0 5.0 0.00 0.00 0.00 73 1016.2
20260831003038 73 226 1.0 4.0 0.00 0.00 0.00 72 1016.2
20260831002537 73 218 1.0 4.0 0.00 0.00 0.00 71 1016.2
20260831002037 73 216 1.0 4.0 0.00 0.00 0.00 71 1016.1
20260831001538 73 216 2.0 7.0 0.00 0.00 0.00 70 1015.9
20260831001040 74 245 1.0 7.0 0.00 0.00 0.00 70 1015.6
20260831000537 74 213 1.0 4.0 0.00 0.00 0.00 70 1015.7
20260831000050 74 212 2.0 7.0 0.00 0.00 0.00 70 1015.8
20260830235536 74 212 1.0 7.0 0.00 0.00 0.00 70 1015.8
20260830235036 74 228 2.0 6.0 0.00 0.00 0.00 70 1015.8
20260830234538 74 234 3.0 7.0 0.00 0.00 0.00 69 1015.6
20260830234035 74 219 2.0 8.0 0.00 0.00 0.00 69 1015.7
20260830233535 74 231 1.0 8.0 0.00 0.00 0.00 69 1015.6
20260830233036 74 228 3.0 8.0 0.00 0.00 0.00 69 1015.9
20260830232536 74 200 2.0 8.0 0.00 0.00 0.00 69 1015.9
20260830232034 74 226 1.0 8.0 0.00 0.00 0.00 68 1016.0
20260830231534 75 231 3.0 6.0 0.00 0.00 0.00 68 1016.0
20260830231038 75 222 2.0 11.0 0.00 0.00 0.00 68 1015.9
20260830230533 75 222 1.0 11.0 0.00 0.00 0.00 68 1016.0
20260830230041 75 204 3.0 9.0 0.00 0.00 0.00 68 1015.9